GFSMA_sfc_wetblb_108.txt.gz
Wetbulb
61.18 60.93 60.74 60.63 60.27 60.22 59.55 58.69 58.13 58.10 58.22 58.90 58.48 57.16 54.36 56.11 58.62 60.33 60.49 63.15 66.58 67.93 66.79 66.06 65.16 64.65 64.03 63.43 62.87 62.52 62.25 61.92 61.36 61.01 60.80 60.78 60.94 61.05 61.17 61.55 61.70 61.52 61.68
62.29 61.49 60.74 60.72 60.53 61.12 61.00 60.24 59.49 59.71 60.46 60.47 59.88 57.96 54.49 54.22 56.19 59.01 59.85 60.50 64.56 66.93 68.21 67.50 66.84 65.98 65.05 64.30 63.17 62.33 62.34 61.80 61.44 60.74 60.44 60.10 59.86 60.07 60.18 60.53 60.54 60.71 61.14
63.56 62.60 61.91 61.51 61.55 61.64 61.70 61.38 61.05 60.86 60.17 60.20 58.86 58.78 58.16 54.42 53.80 56.18 59.23 59.26 60.54 63.35 66.04 67.99 67.86 67.25 66.81 66.44 65.53 64.37 63.13 62.86 62.07 61.32 60.51 59.63 59.03 58.98 59.21 59.35 59.38 60.07 60.34
64.78 63.24 62.63 62.25 62.51 62.26 61.98 61.45 60.77 59.68 58.37 57.39 56.70 56.50 56.42 56.35 54.90 54.05 56.00 58.35 59.21 60.24 62.24 65.49 66.81 67.24 67.10 67.05 66.26 65.70 65.19 63.79 63.10 62.50 61.71 60.63 59.66 58.88 58.75 58.51 58.68 59.36 59.46
64.72 64.15 63.39 62.62 62.69 62.25 61.77 61.36 59.77 58.66 57.41 56.69 56.58 56.68 56.35 56.46 56.68 55.65 55.20 56.60 57.73 58.92 59.20 61.08 62.91 64.00 65.48 66.07 66.10 65.93 65.09 65.35 64.24 63.45 62.81 61.85 60.55 59.64 59.12 58.84 58.23 58.77 58.71
62.36 63.14 62.78 62.66 62.46 61.78 60.99 59.90 59.39 58.09 57.56 57.41 57.89 57.55 57.48 57.64 57.77 57.25 57.05 57.34 57.43 58.11 58.50 59.61 60.16 60.51 62.41 63.69 64.36 65.11 65.34 64.55 64.63 64.65 64.04 63.37 62.27 61.06 60.16 59.99 59.18 59.06 58.65
60.96 61.64 61.81 61.50 61.76 61.43 61.26 59.85 58.46 57.74 57.12 57.43 57.25 57.66 57.91 58.65 57.23 57.09 57.26 57.97 58.49 59.15 58.74 59.78 60.13 59.18 59.71 60.63 61.95 62.75 63.14 63.29 63.31 63.75 64.26 64.34 63.84 62.87 61.98 60.76 60.33 59.93 59.49
61.16 61.13 60.38 59.70 59.74 59.47 59.12 58.63 58.52 57.82 58.02 58.14 57.03 56.65 55.25 56.12 56.32 55.17 55.99 57.23 55.26 55.86 57.23 58.47 58.76 56.36 56.19 54.71 55.46 57.90 59.28 60.50 61.46 61.84 62.19 63.08 63.80 63.60 63.47 62.60 61.78 61.02 60.57
61.69 61.44 61.18 60.81 59.35 59.12 59.02 58.34 58.57 58.78 58.12 58.76 59.09 57.80 54.18 53.65 55.36 55.65 53.89 55.54 55.88 54.85 54.37 54.81 55.46 54.83 53.86 51.83 52.60 53.38 56.09 57.95 60.28 61.21 61.78 61.98 62.43 62.67 63.23 63.81 63.15 62.42 61.44
63.36 63.05 63.39 62.96 61.89 61.34 61.28 60.65 61.42 60.86 60.58 59.03 59.98 60.35 59.42 58.50 55.59 54.32 54.68 52.95 52.96 53.09 53.37 53.24 52.61 53.44 52.34 50.85 51.67 53.54 54.49 55.38 58.08 60.01 60.65 60.99 61.40 61.85 62.55 62.82 63.47 63.30 62.30
64.54 64.14 63.82 62.98 62.76 63.22 63.27 63.27 62.31 61.62 61.26 60.69 59.86 59.08 59.08 58.92 59.00 56.73 54.07 54.03 52.68 52.11 52.03 51.98 51.89 51.03 50.18 49.28 49.64 53.48 56.49 57.25 57.06 58.33 59.82 60.60 60.86 61.08 61.93 62.37 62.76 63.36 62.89
62.93 63.75 64.18 64.18 63.88 63.67 63.45 63.15 62.94 62.26 61.86 61.27 60.20 60.20 58.50 56.80 56.64 56.63 55.62 55.11 53.46 51.52 50.81 50.49 49.97 49.62 49.87 48.88 51.80 53.97 56.45 58.41 56.98 57.05 59.64 60.10 60.24 60.45 61.19 62.18 63.01 62.87 63.04
61.60 62.23 62.08 61.56 61.34 61.52 61.46 61.17 60.77 60.06 59.72 60.26 60.40 59.73 60.00 59.40 58.76 57.62 56.04 54.60 53.89 50.37 48.32 48.21 48.08 47.26 48.34 48.07 49.56 51.66 54.75 57.55 59.54 60.14 60.99 60.25 58.73 58.89 59.79 61.78 62.76 62.80 62.66
59.24 60.50 60.00 59.64 59.23 59.50 58.86 57.82 57.15 57.49 58.76 58.33 57.02 57.98 57.62 57.84 58.52 57.07 56.17 54.63 52.58 50.51 47.02 48.20 45.05 45.74 46.73 47.38 49.07 51.49 52.34 54.83 55.60 56.57 56.90 56.46 55.52 55.23 56.12 57.66 58.15 58.50 59.66
56.79 58.14 57.82 57.36 56.45 56.48 56.29 56.23 55.94 55.57 56.87 57.78 57.74 57.70 57.64 57.83 58.29 58.51 58.45 57.65 54.88 52.07 49.50 47.36 44.80 45.07 46.07 47.65 48.47 48.40 49.59 52.76 52.98 52.88 52.83 52.87 52.60 52.15 52.65 53.51 54.52 54.26 53.92
53.70 53.88 53.49 53.37 52.78 52.08 51.70 51.68 50.79 50.61 50.38 50.19 50.65 51.79 52.46 52.43 53.34 53.65 55.54 56.17 55.79 55.06 52.58 46.57 44.71 44.41 45.84 46.02 47.79 46.65 47.97 49.83 51.19 51.20 50.53 50.10 50.44 50.02 50.20 50.62 51.18 51.43 51.58
50.00 49.98 50.03 49.81 49.38 48.70 48.29 48.70 48.85 48.96 49.93 49.79 49.92 52.15 51.93 52.17 50.58 50.94 51.86 51.99 52.40 52.80 51.71 41.75 42.89 43.79 44.06 44.59 44.96 44.93 44.90 44.83 46.66 49.02 48.74 48.38 48.54 48.58 48.94 49.30 49.65 49.84 49.99
46.33 46.65 46.52 45.67 44.74 44.16 43.82 43.96 44.26 44.98 45.51 46.18 47.17 49.49 50.16 50.21 48.54 49.69 49.82 49.52 49.52 50.38 48.90 43.46 40.66 41.61 42.32 43.72 43.24 42.37 41.40 42.25 43.69 46.76 47.35 47.68 48.01 47.79 47.53 47.04 46.74 46.61 46.51
43.53 43.65 43.43 42.54 41.99 41.53 41.13 40.84 41.27 41.87 42.89 43.86 44.25 44.36 46.01 45.83 45.33 46.55 47.38 46.75 46.75 46.62 46.23 42.78 39.40 41.04 41.16 42.71 40.99 40.10 38.77 38.72 40.65 46.19 46.43 46.13 45.90 45.17 44.69 44.38 44.33 44.64 44.40
41.48 41.06 40.81 40.70 39.97 39.65 39.80 39.76 39.85 39.66 40.15 40.64 40.79 40.62 40.53 40.94 42.22 45.18 45.31 45.25 44.86 44.60 44.05 42.25 40.30 39.13 39.61 41.13 40.21 36.77 34.34 34.65 33.39 35.82 38.67 38.06 40.40 42.08 42.58 42.14 41.80 41.54 41.50
39.40 39.83 39.04 38.40 38.45 39.41 41.17 39.36 39.02 38.06 37.67 37.73 38.03 38.35 38.66 41.13 44.03 44.96 44.07 43.05 43.15 42.78 42.57 41.12 39.42 38.50 37.32 37.81 37.76 36.67 34.05 31.54 30.89 31.34 31.11 31.37 31.00 30.44 33.42 38.56 38.96 38.64 38.79
38.18 38.12 37.88 37.73 37.20 39.57 43.89 44.16 41.13 37.48 36.98 36.36 36.00 36.33 37.06 39.79 41.29 44.08 45.10 44.67 43.65 41.23 39.32 38.62 37.83 37.05 36.54 36.88 35.53 35.01 31.39 30.27 29.71 30.66 29.44 28.23 29.38 28.45 30.24 31.11 37.78 38.41 38.42
36.74 35.65 35.50 35.75 35.17 36.01 42.97 43.61 42.88 36.21 35.80 35.08 35.25 35.42 37.47 38.94 39.61 39.50 39.88 40.26 40.57 42.04 43.32 39.76 37.86 37.85 36.53 35.75 35.11 32.61 31.54 31.24 30.42 28.89 27.62 26.01 27.80 28.02 29.86 31.59 38.62 38.77 37.96
35.25 35.68 36.59 36.86 34.17 35.88 41.17 42.19 42.04 34.61 33.96 33.97 34.57 35.04 36.70 37.20 37.34 37.87 35.33 34.49 33.62 33.95 34.84 37.91 37.80 38.58 38.04 36.78 36.78 35.18 32.43 29.23 29.04 28.72 27.95 25.60 27.57 27.35 28.98 29.50 37.51 37.83 37.11
33.78 33.54 35.74 37.01 35.80 32.86 39.39 41.95 39.59 35.94 33.63 32.28 34.95 36.60 36.95 36.48 38.14 39.44 33.71 32.85 32.03 32.48 36.62 38.32 38.09 38.17 38.34 38.53 34.94 32.53 30.09 30.20 27.17 26.60 27.70 27.90 26.80 26.77 27.82 28.49 29.59 36.41 36.37
34.63 34.06 36.02 36.53 36.72 34.26 38.38 40.74 40.85 36.40 34.49 33.83 32.21 33.94 36.01 38.33 38.74 39.33 32.06 31.16 30.67 31.22 32.06 32.16 31.64 31.87 33.18 35.76 36.00 29.77 29.95 27.74 24.52 23.85 28.11 26.47 25.41 25.97 24.61 26.71 27.69 27.92 28.90

GFSMA_sfc_wetblb_111.txt.gz
Wetbulb
65.96 66.29 66.26 66.17 65.95 65.61 65.10 63.94 63.35 63.14 63.01 63.54 63.44 63.16 61.40 63.37 64.36 65.52 66.27 63.06 66.46 67.58 66.61 65.90 65.20 64.71 64.22 63.75 63.34 62.81 62.29 61.88 61.46 61.30 61.14 61.14 61.16 61.37 61.84 61.98 61.95 61.92 61.95
65.40 65.09 64.55 64.38 64.34 64.15 63.63 63.02 62.52 62.96 64.23 65.29 64.64 62.92 61.02 61.18 62.35 64.23 65.43 65.57 64.37 66.72 67.93 67.36 66.86 65.99 65.22 64.48 63.69 62.82 62.70 61.97 61.51 61.03 60.67 60.54 60.33 60.47 60.73 60.89 61.03 61.35 61.55
64.87 64.57 63.88 63.32 63.51 64.09 64.20 64.33 64.13 64.94 65.34 65.22 65.09 64.47 64.12 62.33 60.45 61.08 64.13 65.01 64.87 63.23 65.92 68.08 67.70 67.42 67.10 66.52 65.65 64.63 63.73 63.31 62.69 62.06 61.25 60.29 59.93 59.75 59.96 59.83 60.18 60.61 60.81
64.98 64.10 63.65 63.64 64.59 65.12 65.42 65.10 64.77 64.63 64.56 63.56 63.65 63.90 63.29 62.76 62.03 60.10 60.86 63.27 64.17 64.26 64.09 65.45 66.53 66.85 66.81 67.10 66.57 65.87 65.69 64.44 63.91 62.92 62.18 61.16 60.16 59.68 59.62 59.17 59.38 59.86 60.12
65.69 65.02 64.67 65.10 65.16 64.93 64.88 64.74 64.37 64.34 63.58 63.10 62.02 62.13 62.11 61.55 61.52 60.48 60.76 60.86 62.38 63.53 64.39 62.90 62.71 64.22 65.57 66.11 66.01 65.43 65.50 65.97 65.04 64.10 63.40 62.54 61.24 60.21 59.94 59.71 59.33 59.58 59.61
66.51 66.34 65.65 65.21 65.25 64.75 64.50 64.19 64.06 63.01 63.13 61.97 60.35 60.89 61.79 62.12 62.15 61.51 61.33 60.71 61.72 62.17 63.11 63.63 62.88 62.91 62.56 64.43 64.71 65.21 64.92 64.56 64.73 65.29 64.65 63.91 62.97 61.73 60.80 60.68 60.01 59.84 59.36
65.70 66.33 66.19 65.77 65.01 64.58 64.49 63.99 63.22 62.67 61.55 61.44 61.27 61.71 61.73 61.63 61.42 59.84 61.24 62.64 62.85 63.58 63.65 63.60 63.73 64.19 64.04 63.00 63.51 63.46 63.61 63.69 63.15 63.29 64.15 64.52 64.54 63.69 62.56 61.42 61.10 60.48 60.26
63.79 64.16 64.53 64.13 64.48 63.93 63.38 63.17 62.51 61.00 61.29 61.27 60.35 59.02 58.25 58.81 58.38 57.55 59.02 61.22 61.11 60.63 60.61 61.89 62.03 60.78 58.83 59.81 60.00 59.05 60.07 60.99 61.54 61.75 61.85 62.23 63.53 64.26 64.05 63.48 62.32 61.78 61.41
62.99 62.92 62.93 63.43 63.00 63.20 63.03 62.64 62.12 62.05 61.00 61.25 61.33 60.33 56.65 55.15 56.92 57.28 55.79 56.21 57.60 57.63 57.74 57.12 58.08 57.14 57.07 55.83 55.53 55.47 56.55 58.90 60.44 61.08 61.41 61.52 61.91 62.41 63.48 64.00 63.80 63.23 62.22
63.09 63.36 63.43 63.45 62.51 62.93 62.40 62.19 62.23 61.71 61.00 60.26 61.47 61.78 61.97 61.39 56.68 56.31 55.99 54.35 54.39 54.44 54.48 54.61 54.18 54.08 53.23 53.20 52.48 53.35 54.75 55.98 58.52 60.04 60.37 60.66 61.20 61.63 62.39 62.84 63.55 63.70 63.15
64.29 64.00 64.23 64.46 63.70 63.45 62.84 62.45 61.71 61.77 62.43 62.15 61.86 60.79 60.87 60.45 59.72 57.44 54.59 56.05 54.73 54.13 54.89 53.34 53.60 52.34 51.54 51.71 52.24 54.24 56.45 58.06 58.37 59.13 59.29 60.02 60.89 60.93 61.37 62.10 62.78 63.14 63.27
64.20 64.74 64.19 64.58 64.82 64.20 63.89 63.86 63.45 62.92 63.08 62.65 62.67 62.31 60.11 57.93 57.68 57.32 55.84 56.24 56.01 54.81 52.99 52.81 52.17 51.38 50.77 51.25 53.12 54.38 55.76 58.52 58.37 57.54 59.10 60.22 60.70 60.84 61.12 61.58 62.40 63.14 63.21
63.22 63.46 64.18 64.15 63.96 64.06 64.33 63.82 63.48 62.71 63.00 61.44 61.47 61.66 61.94 61.18 59.62 58.44 56.71 55.66 54.89 55.94 51.11 50.53 51.23 51.76 50.72 51.71 52.50 53.05 54.68 58.37 58.62 60.63 61.81 60.22 58.78 58.54 59.39 59.65 61.57 62.93 63.31
62.77 63.21 62.78 62.69 62.82 63.06 62.86 62.31 61.25 60.79 61.25 61.25 59.97 59.97 60.18 60.46 60.70 60.14 58.34 57.26 54.65 55.22 52.28 52.25 49.70 50.55 50.40 50.96 51.45 52.65 55.34 55.52 57.54 58.17 57.75 56.96 55.95 55.50 56.23 57.22 58.22 60.75 62.29
61.17 61.58 61.37 60.05 60.41 59.87 59.54 59.51 59.04 58.60 59.38 59.07 58.35 57.99 57.45 57.53 57.51 58.19 58.29 57.89 55.72 51.88 52.23 52.74 50.66 48.27 49.41 49.64 50.12 51.10 50.98 53.90 54.12 54.18 53.93 53.65 53.45 53.33 53.42 54.04 55.11 55.66 55.98
59.08 58.31 57.33 56.59 55.14 55.14 55.71 55.48 54.84 53.98 53.82 53.35 54.32 53.85 53.60 54.11 54.88 55.67 56.21 55.93 55.64 53.46 50.79 52.47 50.10 47.87 48.22 48.04 49.25 48.85 49.71 50.83 52.19 52.12 51.78 51.40 51.49 51.40 51.38 51.75 52.48 53.42 53.90
54.92 54.59 54.24 53.41 52.03 50.94 51.36 51.83 51.90 51.83 51.83 52.12 53.10 53.37 52.26 53.17 53.48 54.04 54.31 54.33 53.89 54.02 51.61 46.13 45.64 45.66 45.48 46.32 46.53 46.55 46.78 47.02 49.06 50.07 49.94 49.70 49.57 50.14 50.51 50.49 50.91 51.65 52.24
51.46 51.17 50.28 48.86 47.86 47.15 47.70 48.05 47.62 48.21 49.04 49.49 50.05 51.07 50.92 50.81 51.25 51.65 52.03 51.74 51.44 50.92 50.05 48.44 43.02 43.37 44.56 45.87 46.06 43.91 42.73 44.02 45.65 47.81 48.65 48.81 49.12 49.27 49.12 48.66 48.92 48.65 48.86
47.86 47.56 47.13 45.82 44.96 44.75 44.73 44.80 45.24 45.81 46.73 47.00 46.96 47.19 46.74 47.31 47.87 48.82 48.93 49.52 49.27 48.11 47.52 44.65 41.43 41.95 42.25 43.82 42.67 41.72 40.45 40.90 43.01 47.07 48.07 47.99 47.62 47.21 46.74 45.99 45.94 46.51 46.40
44.92 44.38 44.02 43.48 43.03 43.12 43.18 43.13 43.20 43.73 44.15 44.08 43.85 43.85 43.89 44.31 44.90 46.13 46.67 46.80 46.68 46.62 45.89 44.12 41.62 40.53 41.13 42.64 41.82 38.35 36.12 36.97 35.79 37.71 41.07 42.14 43.48 44.80 44.87 44.59 44.37 43.82 43.28
42.79 42.38 41.73 41.67 42.33 43.04 42.47 42.62 42.42 42.22 42.20 41.97 41.74 41.62 42.27 42.69 43.25 45.29 45.77 45.86 45.62 44.97 44.50 43.24 40.69 39.79 38.86 38.84 39.04 38.21 35.83 33.39 32.98 34.20 35.19 35.10 35.40 36.77 39.08 41.86 40.63 40.18 40.88
41.19 41.30 40.97 41.26 41.74 42.94 44.94 44.35 41.94 41.18 40.45 40.15 40.24 40.71 40.97 41.25 42.33 43.50 44.79 44.52 44.90 44.02 42.76 41.32 40.16 38.62 38.95 38.90 37.70 36.57 33.02 31.93 31.21 34.18 33.62 31.98 33.00 33.41 35.24 38.04 38.41 39.11 39.33
39.84 39.03 39.03 39.64 39.62 42.44 44.41 43.90 41.33 39.85 39.10 38.95 38.89 39.31 39.91 40.39 40.68 40.79 40.82 40.15 39.52 40.54 42.06 42.62 40.32 40.30 39.20 38.78 37.72 35.79 34.12 34.82 34.62 31.40 32.27 31.41 32.88 33.41 34.34 34.56 37.88 39.49 39.43
38.39 38.41 38.68 38.22 38.57 40.55 43.08 43.20 41.58 38.98 38.33 37.79 38.19 38.64 39.19 39.52 39.69 40.21 38.82 37.22 35.46 35.28 36.51 36.59 39.50 40.23 40.01 39.24 38.61 37.95 36.31 31.69 30.39 30.09 31.40 32.04 32.28 32.27 33.71 35.57 37.67 39.46 38.55
36.91 37.36 38.75 38.81 37.90 38.08 40.93 42.47 40.62 38.38 37.50 37.05 37.68 38.22 38.25 38.52 38.86 40.15 36.45 35.38 34.07 33.93 36.69 39.66 39.37 39.25 39.39 40.38 37.30 34.58 32.66 32.40 29.35 29.44 30.18 32.54 30.77 31.18 32.29 32.96 35.34 38.83 37.54
37.32 38.16 38.14 38.80 38.66 37.64 39.39 41.51 41.57 38.81 37.63 36.87 36.03 36.16 36.21 37.58 40.06 39.77 35.47 34.37 32.88 32.73 33.15 33.00 32.52 33.57 34.65 37.82 36.56 34.02 34.65 33.61 30.60 29.80 31.29 32.46 29.93 30.80 30.17 31.68 32.82 34.27 35.98

GFSMA_sfc_wetblb_114.txt.gz
Wetbulb
68.10 69.10 69.04 69.55 68.69 68.53 67.50 65.92 65.73 65.98 66.09 66.17 66.25 66.18 65.32 66.76 67.12 67.64 67.95 64.66 66.52 67.17 66.62 66.11 65.66 65.16 64.62 64.02 63.57 62.98 62.55 61.95 61.54 61.33 61.07 61.25 61.34 61.78 62.18 62.02 62.04 62.18 61.74
67.84 67.73 67.78 67.71 67.50 67.22 66.24 65.56 64.93 64.80 65.15 66.10 65.58 64.86 63.64 64.31 65.18 66.34 67.28 66.80 65.26 66.88 67.59 67.28 66.75 66.08 65.52 64.97 64.11 63.43 62.93 62.49 61.85 61.44 60.99 60.75 60.67 60.76 60.93 61.00 61.21 61.41 61.43
67.76 67.13 66.47 66.14 66.07 66.05 65.31 64.71 64.34 65.27 66.22 67.00 66.58 65.82 66.25 65.75 64.30 64.09 65.12 66.40 66.13 63.84 66.20 68.37 67.97 67.62 67.09 66.73 65.91 64.94 64.19 63.75 63.29 62.58 61.65 60.60 60.28 60.46 60.36 59.90 60.51 60.67 60.88
66.81 66.15 65.46 65.00 65.21 65.06 64.75 64.47 64.27 65.10 67.03 67.06 66.60 66.54 66.21 66.11 65.81 65.01 64.23 64.79 65.57 66.01 64.93 66.00 67.19 67.57 67.59 67.58 67.24 67.10 66.24 65.09 64.52 63.54 62.71 61.63 60.63 60.41 60.39 59.94 59.97 60.10 60.19
66.03 65.42 64.43 64.34 65.24 65.99 66.29 66.24 66.31 66.64 66.10 66.26 65.70 65.63 65.17 64.83 64.80 64.18 63.94 64.11 64.56 65.25 66.27 64.46 63.78 64.86 66.22 66.77 67.19 66.94 66.51 66.64 65.91 64.98 64.03 63.18 61.95 60.70 60.61 60.38 60.00 59.90 59.93
65.41 65.23 65.42 66.11 66.77 66.58 66.41 66.35 66.00 66.55 66.82 66.14 63.36 63.38 65.05 65.04 64.97 64.61 64.39 63.88 63.94 64.62 65.39 65.66 66.16 64.76 62.55 64.81 65.99 65.92 65.51 65.43 66.13 66.01 65.33 64.54 63.71 62.56 61.40 61.14 60.66 60.66 60.22
67.56 67.32 67.23 67.00 67.33 66.72 66.61 66.71 66.53 65.68 65.04 64.77 63.80 63.91 64.46 65.02 64.55 64.61 65.01 63.99 64.37 64.79 65.27 66.05 66.52 65.49 65.17 64.08 64.68 64.37 64.26 64.05 63.73 63.94 64.85 65.43 64.95 64.44 63.33 62.20 61.71 60.99 60.85
68.07 67.81 67.68 67.20 67.15 66.76 66.64 66.19 65.55 63.94 65.17 65.30 62.88 62.66 60.65 61.98 63.01 62.41 62.87 62.92 62.27 62.78 63.68 62.05 63.85 64.70 63.18 61.91 61.60 59.12 60.38 61.82 62.39 62.78 62.93 63.03 63.20 64.51 64.68 64.01 63.02 62.34 61.76
66.72 67.15 67.09 67.03 66.83 66.41 65.48 66.11 66.30 65.78 64.06 64.31 63.11 62.71 59.86 58.82 61.92 63.08 60.53 59.17 59.82 61.44 59.81 58.92 59.23 58.24 57.88 57.55 56.50 56.26 56.29 57.99 61.08 62.19 62.81 62.56 62.19 62.73 63.71 64.09 63.93 63.53 62.85
65.03 65.51 64.90 65.22 65.89 66.25 65.58 65.56 65.80 65.47 62.04 60.56 63.00 63.55 64.37 63.12 59.48 57.66 60.90 59.98 58.49 57.03 56.60 57.23 56.31 57.27 55.56 54.61 53.61 53.50 55.05 55.96 58.71 61.02 61.66 62.01 61.76 62.12 62.66 62.96 63.33 63.53 63.39
65.24 64.84 65.12 65.81 65.13 65.31 64.11 62.76 61.93 61.82 63.08 63.04 63.13 62.72 62.05 62.26 61.74 58.80 55.73 56.87 56.78 56.07 56.22 57.50 55.56 54.40 52.89 53.42 53.46 54.00 55.99 57.02 59.97 60.68 61.11 61.08 61.29 61.54 61.63 62.09 62.33 62.87 63.26
64.31 64.38 64.55 64.77 64.52 64.13 63.54 63.82 64.37 63.60 63.35 63.78 63.85 63.33 62.05 60.07 59.21 59.06 56.68 57.07 57.18 56.86 55.36 54.87 54.82 55.24 52.56 51.86 52.81 53.79 54.98 57.09 59.47 60.19 59.96 60.68 60.58 60.83 60.54 60.87 61.48 61.98 62.49
64.38 64.14 64.36 63.90 64.10 63.82 64.90 64.21 64.42 64.24 63.48 63.24 63.12 63.05 63.37 62.45 62.24 60.56 59.01 58.25 57.21 57.01 54.90 55.80 57.16 53.98 51.92 52.17 53.30 52.91 54.17 56.77 59.11 58.69 61.21 60.77 59.18 58.72 58.52 59.09 59.86 61.10 62.03
63.72 64.38 63.81 63.98 64.34 64.17 64.40 64.33 63.75 63.19 63.92 63.64 63.02 63.10 62.37 61.69 61.23 60.43 58.03 57.69 55.71 56.68 57.75 57.55 56.52 55.37 55.22 55.11 54.37 52.45 55.24 54.94 57.61 59.55 59.52 57.72 56.00 56.20 56.67 56.91 57.48 59.19 62.04
62.78 63.36 63.58 63.31 63.54 64.13 64.17 64.04 62.83 62.17 62.62 61.57 60.70 60.41 59.46 59.56 58.62 59.24 59.07 58.55 56.48 52.46 52.99 56.92 56.47 53.72 54.21 53.89 53.26 53.69 54.69 53.83 54.66 55.00 54.71 54.11 54.01 53.95 54.21 54.94 55.42 56.03 58.57
61.66 62.35 61.81 62.22 61.61 61.32 61.42 61.62 60.90 60.11 60.13 59.13 58.34 57.38 56.03 55.79 56.36 57.20 56.94 55.80 55.16 54.22 50.39 56.32 56.13 53.86 52.90 51.55 51.98 53.12 53.02 51.73 52.97 52.98 52.34 51.96 51.96 51.91 52.13 52.92 53.57 54.62 54.92
60.59 60.12 59.51 58.71 57.57 57.74 58.28 58.01 56.89 56.26 55.81 55.40 56.00 55.29 54.50 54.75 55.24 55.42 55.67 55.37 53.70 54.37 52.16 51.99 52.29 50.73 48.28 50.03 49.27 49.73 49.96 50.35 51.13 51.05 50.71 50.36 50.16 50.64 51.05 51.41 52.20 52.89 54.05
58.04 56.99 56.47 55.36 54.94 54.91 55.55 55.35 53.50 53.98 53.80 53.43 53.64 53.74 52.79 51.94 53.06 53.78 54.24 53.34 52.53 53.53 51.25 50.41 48.14 46.76 47.40 48.50 48.17 46.62 45.29 45.76 47.37 48.74 49.24 49.03 49.69 49.90 49.89 50.16 49.60 49.81 50.76
54.52 54.10 54.01 52.24 51.13 51.18 51.47 51.75 51.41 51.17 51.43 51.50 51.36 51.35 50.54 50.88 50.91 51.16 50.53 49.84 50.38 49.94 50.05 48.79 46.76 44.01 44.45 45.39 44.21 42.93 42.22 42.65 43.73 46.37 48.35 48.93 48.78 48.58 47.88 47.50 47.30 47.78 47.45
51.95 51.48 50.99 49.75 48.70 48.43 48.55 48.17 48.76 48.94 48.82 48.37 48.17 48.19 48.04 48.17 48.55 49.10 49.48 49.58 48.33 48.57 48.61 47.10 44.70 43.42 43.67 43.92 43.32 40.32 38.13 39.19 37.99 39.87 42.92 44.81 46.01 46.18 46.14 45.77 46.17 45.35 44.92
49.03 48.20 47.44 47.08 47.18 47.27 46.55 47.02 47.17 47.24 46.84 46.03 45.73 45.41 45.79 44.50 43.27 45.72 47.18 47.15 46.01 45.50 46.49 45.76 43.51 42.22 41.26 40.25 40.49 39.26 37.05 35.63 35.24 36.10 36.28 36.70 38.08 40.60 42.00 43.84 42.43 42.14 42.45
46.59 46.38 46.02 46.17 46.23 45.24 44.13 44.75 45.96 45.29 44.57 44.50 43.99 44.03 44.40 42.45 43.78 43.20 44.59 44.35 45.13 44.60 43.49 43.52 43.05 40.66 41.07 40.48 39.53 37.51 34.38 33.50 33.29 35.04 34.10 34.18 36.02 36.12 37.27 40.28 40.28 39.87 40.33
45.27 44.99 44.97 45.45 45.51 45.88 45.11 43.62 43.36 44.33 43.44 42.73 42.30 42.85 43.14 43.23 42.96 43.67 42.74 41.22 41.28 40.50 40.92 40.99 41.35 42.04 41.41 41.36 39.34 36.58 35.24 35.20 35.56 33.80 35.41 34.41 33.55 33.84 36.34 37.66 38.52 39.49 39.70
43.34 43.17 42.86 43.73 44.41 44.70 44.48 43.17 42.00 42.92 42.66 41.93 42.01 42.30 42.68 42.85 42.81 42.13 42.39 41.73 41.33 40.01 38.26 38.67 38.00 39.37 40.81 41.29 40.13 39.10 37.61 33.39 31.42 31.01 32.84 33.02 33.69 34.55 36.09 37.38 38.62 40.15 39.93
41.27 41.60 42.08 42.29 43.02 42.93 43.60 43.48 42.66 42.61 41.60 41.23 41.25 41.88 41.96 41.84 40.61 40.17 40.08 38.18 39.73 39.12 37.52 38.80 38.68 39.37 40.25 40.70 39.65 35.99 33.48 33.12 30.74 30.45 30.92 32.45 32.45 34.36 34.91 35.70 38.36 40.06 39.34
40.87 42.17 41.72 42.32 42.34 42.64 42.07 43.20 42.90 42.70 41.67 41.15 40.69 40.61 37.95 39.76 39.66 40.38 40.40 38.75 37.76 37.83 36.65 35.04 34.01 34.62 35.74 38.06 36.88 34.12 35.33 33.98 32.90 31.02 31.89 32.70 32.11 33.18 31.35 34.25 36.71 38.55 37.70

GFSMA_sfc_wetblb_117.txt.gz
Wetbulb
68.26 68.16 67.70 67.98 67.62 68.04 66.91 66.32 66.18 65.96 65.80 65.72 65.81 65.40 65.30 66.12 66.14 66.37 66.61 65.09 66.97 67.34 66.60 66.13 65.64 65.24 64.79 64.34 63.81 63.12 62.57 61.99 61.55 61.27 61.29 61.44 61.76 62.12 62.12 62.24 62.34 62.08 62.20
68.28 68.09 67.31 68.67 68.09 67.93 67.03 65.55 65.03 65.07 65.05 65.24 64.83 64.53 63.83 64.70 65.03 65.81 66.55 65.48 66.00 67.39 67.47 67.21 66.73 66.25 65.60 65.07 64.42 63.77 63.11 62.70 62.06 61.51 60.90 60.67 60.85 60.92 61.04 61.15 61.43 61.62 61.79
68.17 68.69 68.22 68.00 67.52 67.27 65.79 65.10 64.46 64.66 64.75 65.34 65.07 64.66 64.33 64.32 63.88 64.07 65.33 66.17 65.33 64.66 66.95 68.31 68.25 67.60 67.01 66.76 66.04 65.13 64.48 64.02 63.54 62.61 61.79 60.93 60.37 60.58 60.48 60.15 60.79 60.73 61.22
68.13 67.52 67.17 66.65 66.58 65.61 64.85 64.08 63.63 64.02 65.44 66.17 66.22 66.13 65.70 66.15 65.41 64.85 64.53 64.48 65.95 65.79 64.80 66.80 67.79 68.11 67.84 67.77 67.54 67.52 66.56 65.54 64.98 64.04 63.21 62.26 61.00 60.66 60.65 60.13 60.16 60.11 60.57
67.04 66.53 65.96 65.73 65.25 64.46 64.01 64.08 64.00 64.88 65.74 65.66 65.50 65.60 65.58 65.08 64.96 64.72 64.45 64.53 64.94 65.52 66.10 64.38 64.59 65.47 66.45 66.90 67.56 67.51 67.02 66.86 66.42 65.64 64.64 63.78 62.64 61.41 61.03 60.98 60.36 60.19 60.05
65.98 65.62 65.02 64.34 64.37 64.93 65.32 65.89 65.49 66.35 65.89 65.68 64.24 63.50 64.77 65.43 65.76 65.15 64.27 64.31 64.49 64.69 65.02 66.02 64.58 63.71 63.29 64.78 66.09 66.59 66.37 65.80 66.54 66.13 65.87 65.27 64.45 63.43 62.18 61.50 61.22 60.85 60.56
64.99 64.58 64.46 64.97 65.64 65.62 65.63 65.76 65.75 65.20 65.16 65.80 64.11 63.73 64.24 65.10 64.80 64.92 65.23 64.79 64.86 64.98 65.01 65.46 65.47 65.58 63.13 63.83 64.33 64.38 64.77 64.69 64.60 64.21 64.21 64.71 65.04 64.64 64.15 63.14 62.29 61.63 61.34
65.30 65.22 66.14 65.96 66.13 66.07 65.46 66.03 66.08 65.26 65.54 66.15 62.61 63.09 60.34 61.98 63.42 63.49 63.37 63.10 63.22 62.74 62.24 62.11 63.33 64.08 64.72 62.41 59.36 58.82 59.43 61.35 63.05 63.75 63.57 63.40 63.42 63.86 64.40 64.52 63.75 63.00 62.14
67.68 67.51 67.15 66.56 66.93 66.81 66.12 66.71 66.29 65.75 63.96 65.61 64.16 62.47 59.10 58.32 61.34 62.61 61.66 60.62 60.49 61.14 60.20 59.37 60.39 59.75 58.85 57.39 57.31 56.69 56.69 58.10 60.17 62.66 63.46 63.33 63.04 63.02 63.41 63.85 64.00 63.76 63.29
67.74 67.93 67.78 67.48 67.28 67.08 66.67 66.24 66.71 66.83 66.03 62.46 63.19 63.75 64.21 62.92 59.02 57.70 60.88 60.57 60.35 59.65 59.47 58.76 57.53 57.18 56.66 55.34 54.54 54.30 55.47 56.44 58.94 60.86 61.98 62.85 62.74 62.62 62.82 62.66 62.91 63.07 63.44
66.35 66.59 66.16 65.63 65.47 66.56 66.97 66.58 65.34 63.36 63.13 63.08 63.41 63.68 62.41 62.36 62.24 59.41 57.18 58.38 58.96 59.82 59.17 56.84 56.67 54.91 54.02 54.42 54.47 54.91 55.67 57.02 58.81 60.34 61.76 62.45 62.10 62.32 62.43 62.25 62.43 62.61 62.83
64.89 64.96 65.43 65.41 65.63 65.82 64.92 63.97 62.83 63.64 63.74 64.00 64.48 63.82 62.48 60.99 59.72 58.72 57.14 58.07 58.12 59.74 59.78 58.24 56.85 56.45 56.37 55.68 53.85 53.71 54.99 56.17 58.55 59.96 60.72 61.09 61.39 60.86 60.62 60.66 60.79 61.30 61.67
63.59 63.96 64.21 64.43 64.72 64.61 64.53 63.77 63.14 63.45 64.06 63.88 63.79 63.34 63.54 62.67 62.38 60.02 58.30 56.98 57.21 59.00 57.92 57.33 57.51 58.36 55.83 54.70 53.63 52.61 53.87 55.60 57.71 59.61 59.86 60.67 60.17 58.88 58.09 58.26 59.04 59.57 60.32
64.50 64.58 63.95 64.46 63.31 63.51 63.77 63.78 63.37 63.84 63.60 63.22 62.69 62.66 62.84 62.15 61.68 60.87 58.86 57.10 55.08 56.41 57.10 57.36 57.77 56.19 55.48 55.29 54.66 52.66 54.29 55.16 56.77 59.63 61.00 59.45 57.16 56.61 56.20 56.63 57.16 57.63 58.89
63.56 64.17 64.01 63.61 63.69 63.62 63.42 63.52 63.12 62.27 62.68 63.36 62.76 61.11 60.77 60.20 60.07 59.98 59.43 58.82 56.73 51.82 52.01 55.09 56.25 55.14 55.15 54.85 53.89 53.95 54.21 54.07 54.89 55.58 55.45 54.89 54.42 54.05 54.30 54.76 55.48 55.87 56.75
62.41 62.82 62.87 63.05 62.98 62.99 62.95 63.10 61.56 61.54 60.50 60.51 59.92 59.69 59.00 57.61 57.07 57.46 57.35 55.85 55.60 53.38 50.58 54.46 55.71 54.33 53.61 52.30 52.61 52.51 52.89 51.82 53.23 53.50 53.04 52.76 52.51 52.10 52.03 52.98 53.84 54.82 55.34
61.87 61.91 61.91 61.40 60.95 60.46 61.06 60.49 59.44 59.19 58.87 56.74 56.55 56.26 55.56 55.69 55.27 55.32 55.67 54.49 53.12 53.35 50.67 52.21 52.62 52.09 51.35 51.31 49.89 50.45 50.25 50.34 51.19 51.56 51.28 50.96 50.69 51.03 51.30 51.85 52.44 53.57 54.38
61.28 60.89 60.17 58.97 58.40 58.68 58.56 57.95 56.51 56.01 55.65 54.82 54.78 54.54 53.86 52.83 53.40 53.75 53.94 53.47 51.74 52.01 50.26 47.85 49.85 49.01 48.57 49.14 49.25 47.58 46.17 46.23 47.60 49.39 49.76 49.58 50.14 50.33 50.55 50.28 49.85 50.40 52.52
58.29 57.97 57.53 56.68 56.13 55.44 55.51 55.50 54.30 53.97 53.57 53.47 53.04 52.84 52.65 51.84 51.75 51.77 51.18 50.04 49.80 49.19 49.36 48.03 47.01 45.65 45.63 45.84 44.69 43.50 42.83 43.39 44.13 46.47 48.67 49.29 49.75 49.40 48.72 48.29 48.68 48.36 48.02
55.90 55.33 54.47 52.81 52.02 51.73 51.38 51.15 51.23 51.23 51.01 50.69 50.41 50.69 50.02 49.55 49.36 49.78 49.38 49.57 48.03 47.66 47.57 46.81 46.79 44.98 44.04 44.69 44.26 41.49 39.28 40.15 39.26 41.39 44.74 46.52 47.09 47.32 46.85 46.87 47.03 45.99 46.07
53.14 51.52 49.86 49.45 48.91 48.68 47.93 48.56 48.95 48.90 48.28 47.44 47.11 46.96 47.06 44.42 43.76 45.04 46.22 47.28 46.66 45.18 44.67 44.10 43.09 43.27 42.07 40.88 40.52 40.68 38.06 36.65 36.56 37.25 36.92 37.96 38.96 40.07 43.01 44.85 43.58 43.62 43.76
48.09 47.96 47.50 47.17 46.84 45.54 46.20 47.54 47.83 46.90 46.45 46.04 45.00 44.72 45.13 42.58 43.57 43.50 44.53 44.11 43.90 43.50 42.60 42.36 42.09 40.96 41.39 40.84 40.20 38.12 35.31 34.17 34.45 36.33 35.46 34.91 35.34 35.59 37.05 40.13 41.62 41.90 42.25
47.17 46.68 46.56 46.40 45.50 44.63 45.42 45.77 46.20 45.58 44.85 44.07 43.51 43.47 43.84 43.50 42.52 44.06 43.62 42.45 42.01 40.97 40.43 40.21 39.53 41.08 40.93 41.48 39.49 36.37 35.08 34.81 35.39 34.20 34.88 33.46 33.24 33.00 35.46 37.93 40.19 40.56 40.46
45.40 45.14 45.23 46.04 45.77 44.96 44.54 44.00 44.43 43.85 43.45 43.03 43.07 43.24 43.26 43.27 43.16 42.16 42.52 41.27 41.27 41.15 39.81 39.76 38.91 38.53 38.32 39.64 40.12 38.88 37.57 34.75 31.74 31.79 33.56 32.46 32.35 32.16 33.80 34.82 39.53 40.11 40.22
43.88 43.57 44.14 44.33 44.72 43.91 44.31 43.25 43.37 43.16 42.36 41.72 42.18 42.54 42.48 42.15 41.70 40.49 40.76 37.52 39.15 39.74 38.53 38.86 38.12 38.51 39.59 41.41 41.54 36.43 33.45 32.77 31.15 30.81 30.80 31.95 31.24 31.93 32.98 33.96 35.67 40.20 40.45
42.18 43.12 42.85 43.73 44.39 43.51 44.17 43.71 43.19 43.19 41.68 41.42 41.05 41.43 39.93 41.06 40.69 40.80 39.88 39.27 36.06 37.14 35.35 35.25 34.38 34.29 35.40 35.21 36.24 33.56 34.37 33.23 32.59 31.14 31.52 31.95 31.16 31.42 30.49 32.60 33.44 35.75 36.00

GFSMA_sfc_wetblb_120.txt.gz
Wetbulb
66.82 66.60 65.34 64.74 63.95 63.85 63.65 62.73 62.33 62.21 61.62 61.38 61.58 61.57 61.96 61.99 62.08 63.64 63.64 64.40 66.56 67.46 66.69 66.27 65.88 65.45 65.02 64.61 64.02 63.36 62.79 62.30 62.00 61.55 61.60 61.71 62.12 62.54 62.52 62.59 62.50 62.40 62.21
66.75 66.54 65.22 64.37 63.46 64.30 63.17 62.43 61.40 61.47 60.86 60.79 60.73 60.91 60.07 60.86 61.66 62.39 63.16 63.70 65.66 67.07 67.57 66.95 66.64 66.21 65.72 65.18 64.62 63.96 63.35 62.80 62.09 61.63 61.12 60.89 61.13 61.22 61.34 61.59 61.64 61.70 61.61
66.33 65.41 65.72 65.35 64.72 64.89 62.23 61.04 60.24 60.21 59.78 61.25 60.40 59.83 59.41 59.05 59.73 60.62 62.45 62.69 64.39 64.74 67.14 67.79 67.83 67.39 67.09 66.61 66.16 65.29 64.59 64.11 63.57 62.85 62.10 61.30 60.88 60.88 60.70 60.61 61.01 61.02 60.87
66.71 65.34 65.38 66.06 65.03 62.40 61.23 60.09 59.14 58.92 60.48 61.67 61.85 61.46 61.52 62.04 61.00 59.40 60.16 61.20 63.08 63.82 64.76 67.19 68.14 68.11 68.18 68.05 67.98 67.54 66.83 65.98 65.21 64.46 63.69 62.82 61.45 60.93 60.83 60.13 60.37 60.37 60.22
65.16 66.12 65.34 63.86 62.38 61.04 60.27 59.70 58.75 59.68 61.17 61.87 61.98 61.61 61.55 60.43 60.74 62.03 60.02 59.97 60.68 61.48 62.22 63.73 64.62 65.61 66.57 66.89 67.43 67.55 67.21 66.65 66.16 65.94 65.44 64.45 63.36 62.10 61.16 60.96 60.29 60.36 60.04
64.22 62.79 62.24 61.53 61.12 60.43 60.54 61.00 60.31 61.78 62.40 62.11 62.83 61.23 60.57 61.02 61.14 60.28 60.11 61.02 60.30 60.90 61.07 63.15 63.01 62.71 63.56 65.29 65.24 66.18 66.30 65.50 65.54 65.31 65.14 65.15 64.77 64.09 63.09 61.99 61.73 61.39 61.09
63.67 61.98 61.08 61.11 61.04 61.75 61.73 62.09 62.14 61.68 61.68 61.90 60.48 59.59 59.98 60.80 60.51 60.63 61.03 60.88 61.20 61.80 61.78 62.62 63.50 62.90 62.30 63.87 64.10 64.06 64.64 64.70 64.27 64.19 64.14 64.08 64.22 64.42 64.28 64.17 63.03 62.34 61.90
62.67 61.02 60.89 61.22 62.35 62.35 62.34 62.05 62.32 61.74 62.08 62.37 59.31 58.31 56.70 58.27 59.45 59.72 60.02 59.74 59.28 60.03 59.92 60.22 60.83 61.97 61.81 59.96 59.49 59.92 60.75 61.57 62.69 63.57 64.19 63.66 63.17 63.39 63.56 63.61 64.12 63.68 62.96
61.95 61.98 62.87 63.15 62.83 63.19 62.24 62.65 63.08 62.48 60.81 61.56 61.05 59.21 55.16 53.88 57.93 58.55 58.06 57.79 57.48 57.92 57.35 57.36 59.29 58.99 58.21 57.58 57.42 56.93 57.83 59.46 60.90 61.47 62.19 63.21 63.23 62.85 63.01 63.17 63.32 63.56 63.44
63.27 64.69 64.62 63.85 63.91 64.20 63.40 63.35 63.97 63.03 62.37 60.14 61.42 61.81 60.69 59.49 55.35 54.76 56.83 56.11 56.77 56.79 56.07 55.79 55.67 56.95 56.57 55.73 55.36 55.09 56.24 57.74 60.19 61.67 62.36 62.66 62.78 62.42 62.83 62.90 63.13 63.17 62.72
65.31 65.15 64.99 64.50 64.52 64.19 64.05 63.57 61.85 61.50 61.44 61.07 60.63 60.81 59.31 59.06 59.77 56.47 53.61 54.02 55.62 56.21 56.02 55.00 54.16 53.68 53.04 52.65 52.14 53.88 55.50 57.39 59.64 61.45 62.38 62.89 63.13 62.20 61.88 61.90 61.88 61.83 61.99
64.02 63.95 63.83 64.03 64.04 63.58 62.89 62.09 62.14 62.02 61.67 61.78 61.81 60.66 59.38 57.32 57.52 56.72 55.58 54.51 53.92 55.40 55.94 55.28 53.89 53.08 53.00 52.46 53.61 53.86 54.72 56.13 57.55 59.96 62.26 62.64 61.99 61.67 61.05 60.52 60.44 60.55 60.42
62.15 62.20 63.37 63.57 63.24 63.16 62.77 62.32 61.57 61.40 61.21 61.31 61.41 60.98 61.06 60.61 61.05 58.94 56.96 55.52 54.46 56.65 54.83 54.29 54.18 53.99 54.13 52.22 51.58 52.29 53.58 55.06 56.70 59.01 60.87 61.82 61.45 59.78 58.97 58.89 58.89 58.90 59.12
62.35 62.59 62.87 62.69 62.85 62.90 62.46 62.02 61.29 61.49 61.83 61.37 61.15 61.71 61.51 60.13 60.11 58.62 56.77 53.82 51.34 51.96 53.20 52.91 52.83 52.29 51.97 51.48 52.29 53.03 51.33 55.06 56.17 59.20 60.41 60.33 57.79 56.87 56.48 56.27 56.79 57.06 57.44
62.44 62.14 62.72 62.18 61.62 61.87 62.05 61.66 61.13 60.94 61.11 60.74 61.05 60.83 59.41 58.53 57.79 57.04 56.08 55.91 53.56 48.53 47.54 49.96 50.14 50.92 51.50 51.17 51.53 52.87 52.90 54.16 54.93 55.18 55.39 55.11 54.51 54.30 54.38 54.44 54.92 55.51 56.15
62.10 62.28 62.19 62.14 61.17 61.43 61.55 61.84 60.91 60.77 60.17 59.48 59.06 58.56 57.86 54.87 54.93 54.46 54.16 53.91 53.38 51.05 47.02 49.48 49.31 49.17 49.76 50.37 50.46 51.32 51.81 51.93 53.24 53.77 53.27 52.89 52.61 52.22 52.22 52.87 53.47 54.53 55.28
61.60 61.67 61.94 62.16 62.05 61.86 61.66 60.72 59.94 59.71 58.90 56.99 56.78 56.22 53.87 53.42 51.96 52.03 51.91 51.51 52.23 52.10 49.56 48.36 48.71 49.38 48.31 48.67 49.38 49.73 49.62 49.66 50.82 51.84 51.78 51.22 50.99 51.41 51.70 52.12 52.65 53.53 54.47
61.49 60.77 60.51 60.21 60.15 59.76 59.52 58.51 57.35 57.77 55.67 53.77 52.81 52.37 51.54 51.49 50.13 50.35 50.26 49.00 50.09 50.41 49.24 47.09 47.06 47.96 47.50 47.02 47.50 47.16 46.24 46.28 47.32 49.72 50.20 50.01 50.48 50.71 51.08 50.26 50.33 50.99 52.58
60.46 60.06 59.65 58.61 58.34 58.48 57.99 57.49 55.73 54.26 52.81 52.18 51.48 50.44 49.49 48.97 48.56 47.90 47.38 46.18 46.64 48.29 47.94 46.77 45.92 45.37 44.92 43.76 43.54 43.58 42.84 43.30 44.12 45.78 48.74 49.30 50.41 50.15 49.25 48.77 48.99 48.52 48.96
56.96 56.96 57.39 56.48 55.60 55.08 54.60 53.07 51.70 49.96 49.14 48.53 48.43 48.15 47.43 46.95 46.59 46.59 46.75 45.85 45.01 43.90 44.66 45.08 44.63 44.27 43.79 44.09 43.63 42.01 40.42 40.24 40.25 42.06 44.97 47.52 48.74 48.34 47.61 47.58 47.13 46.55 47.07
53.23 52.81 51.56 51.03 50.35 50.03 48.67 48.17 48.13 47.26 46.11 45.32 45.15 45.36 44.33 42.94 44.41 44.80 43.90 42.61 42.66 42.12 42.94 42.78 41.45 39.51 39.06 38.84 40.58 40.78 38.35 37.53 37.84 38.46 38.77 39.72 40.86 41.44 43.44 45.57 44.48 44.61 45.06
49.63 48.62 47.60 48.15 46.40 45.58 47.92 48.29 47.29 45.57 44.78 43.89 42.49 42.14 41.66 42.28 43.26 44.59 45.21 44.59 42.96 39.95 38.72 40.62 39.05 39.51 40.15 40.84 39.43 38.55 36.27 34.31 34.87 37.40 36.69 36.90 36.60 36.92 38.06 40.59 42.88 43.05 43.05
48.80 48.05 47.94 45.68 44.35 44.54 47.76 48.29 46.69 44.49 42.95 42.18 41.48 41.47 41.83 42.30 42.05 42.08 43.89 43.37 42.54 42.31 41.50 37.96 38.16 38.58 39.39 40.26 38.70 36.31 35.25 34.81 35.53 35.63 35.59 34.75 33.81 33.88 36.14 38.43 41.72 41.29 41.65
46.07 46.22 45.54 44.77 43.44 44.05 46.22 46.50 45.33 42.41 41.48 41.15 41.29 41.39 40.83 40.35 41.16 40.85 40.17 38.56 38.65 39.14 38.01 38.27 35.79 35.35 35.42 35.92 36.44 38.32 37.48 35.58 32.96 32.82 34.69 32.93 32.42 32.42 34.22 34.50 40.10 41.19 41.12
41.38 41.63 43.60 44.25 42.43 41.70 44.56 44.89 42.84 40.75 39.93 39.42 40.59 40.71 40.54 39.79 42.31 41.94 38.82 35.25 36.28 37.13 39.90 40.30 38.87 38.44 38.78 40.38 40.79 37.11 33.81 32.82 32.10 32.03 31.53 32.33 31.39 31.72 32.56 33.16 35.58 40.24 40.86
42.25 42.41 41.31 41.90 43.03 41.05 44.06 43.87 42.74 40.82 39.07 38.72 38.54 39.23 42.21 40.03 42.55 41.72 37.36 37.71 35.08 32.61 32.91 32.41 31.33 32.44 33.71 33.64 36.40 33.09 33.91 32.77 32.75 32.11 32.13 31.72 30.76 31.23 30.32 32.22 33.53 34.72 33.70

GFSMA_sfc_wetblb_126.txt.gz
Wetbulb
66.30 66.04 65.33 64.45 63.87 62.68 61.79 60.45 60.13 60.49 60.49 60.88 60.44 58.96 59.87 60.65 61.68 62.61 62.57 64.04 66.55 67.54 66.97 66.80 66.31 65.79 65.27 64.72 64.01 63.40 62.80 62.43 61.95 61.66 61.49 61.92 62.12 62.01 62.03 62.10 62.16 61.87 62.30
65.96 65.34 64.64 63.90 63.46 63.36 62.28 61.03 60.31 60.46 60.50 59.08 58.79 59.24 59.70 60.81 61.35 62.00 62.34 63.03 65.41 66.87 67.46 67.03 66.87 66.43 65.84 65.44 64.84 64.13 63.47 62.92 62.35 61.86 61.28 60.89 61.28 61.27 61.27 61.47 61.36 61.10 61.37
65.84 64.97 64.19 63.68 63.52 63.28 62.12 60.92 60.37 59.63 58.19 58.33 57.83 57.92 58.76 59.92 60.94 61.37 62.01 62.29 63.78 64.28 66.74 67.51 67.54 67.30 66.98 66.72 66.41 65.84 65.13 64.58 64.04 63.25 62.39 61.79 61.14 61.05 60.86 60.98 60.79 60.60 60.35
65.57 64.62 63.92 63.43 63.39 62.83 61.39 60.49 58.86 57.86 57.40 58.41 57.48 56.72 56.41 56.77 58.57 60.60 61.26 61.81 62.65 63.58 64.61 67.11 67.86 68.23 68.15 68.07 67.89 67.50 67.09 66.29 65.66 64.94 64.19 63.57 62.76 61.97 61.51 61.35 61.11 60.60 60.04
65.03 64.30 63.81 63.31 62.92 62.65 61.08 60.12 56.93 57.39 57.61 58.78 60.10 59.13 59.17 58.72 58.94 59.00 59.25 60.76 61.27 62.16 62.11 63.40 64.51 65.45 66.35 67.14 67.22 67.27 66.57 66.07 65.99 65.98 65.62 65.12 64.60 63.95 63.00 62.42 62.02 61.39 61.10
65.04 63.94 63.52 63.04 63.11 61.96 59.33 57.40 56.95 58.18 59.32 60.03 60.65 59.76 58.96 58.86 58.96 58.78 58.03 58.56 59.06 61.11 60.66 60.68 60.55 61.32 62.77 64.92 65.17 65.93 65.75 65.69 65.18 64.82 64.43 64.09 64.27 64.63 64.65 64.08 63.17 62.56 62.20
64.94 63.90 63.50 63.29 63.07 60.39 60.02 58.30 57.29 59.08 59.50 60.16 58.53 57.85 58.17 58.85 58.36 58.85 59.54 59.35 59.79 60.14 60.40 60.64 60.81 59.87 60.68 63.74 64.41 64.25 64.74 64.79 64.70 64.65 64.47 63.22 63.36 63.73 63.52 64.08 64.16 63.77 63.50
64.79 63.85 63.17 62.80 61.85 60.06 58.49 58.16 59.45 59.34 60.07 60.17 58.05 57.02 55.31 56.88 57.78 58.75 58.54 58.68 57.70 58.57 58.11 57.98 59.08 59.51 58.42 57.62 58.33 60.01 61.35 62.54 62.73 62.93 62.90 63.32 63.28 63.48 63.30 63.22 63.25 63.27 63.71
64.71 63.97 63.30 62.72 60.88 60.53 59.37 59.34 60.31 60.59 59.55 59.77 59.68 57.40 53.33 52.78 55.89 57.39 56.85 56.15 55.83 55.95 55.52 55.79 56.47 56.59 56.21 55.59 56.90 55.79 58.21 59.89 61.83 62.91 62.99 63.08 63.35 63.37 63.53 63.15 63.34 63.11 63.18
64.36 63.88 62.86 61.83 60.85 60.96 60.00 60.39 61.57 61.49 60.89 59.31 59.60 60.51 58.66 57.38 54.05 53.99 55.34 54.91 55.13 55.12 54.06 54.46 54.39 54.69 54.29 53.33 54.48 55.46 56.54 58.21 60.57 61.84 62.53 62.96 63.83 63.57 63.30 62.84 62.66 62.39 61.87
62.81 61.87 61.54 61.27 61.12 61.44 61.39 61.69 61.81 61.97 61.14 60.22 59.24 58.92 57.71 57.37 57.04 54.11 50.59 52.58 53.68 54.03 54.21 53.94 53.24 52.42 51.95 51.36 51.15 53.44 55.79 57.17 59.08 60.51 61.85 62.53 63.77 63.35 62.44 61.91 61.42 60.95 60.73
61.24 61.40 61.54 61.76 61.84 61.93 62.01 62.47 62.50 61.81 60.98 60.32 60.45 59.84 58.08 56.87 55.81 54.86 52.47 53.14 51.95 53.37 53.53 52.86 51.79 51.03 50.90 50.72 53.12 53.76 54.56 55.72 57.10 59.03 60.78 61.65 62.61 62.36 61.65 60.55 59.98 59.63 59.55
60.67 60.90 61.08 61.37 62.26 62.61 62.77 62.55 61.95 61.42 61.05 60.48 60.57 59.89 59.71 58.95 58.58 56.61 54.43 52.39 51.10 51.84 51.62 50.55 50.61 50.78 51.76 49.96 50.46 51.91 53.22 54.97 56.59 58.24 61.00 61.49 61.53 60.99 59.73 58.56 58.20 58.44 58.53
61.13 62.10 61.86 62.31 62.85 62.96 62.49 62.14 61.54 60.68 60.44 60.58 60.27 60.30 59.99 59.73 59.37 57.75 55.83 52.78 49.24 49.62 49.11 48.62 49.17 49.34 50.42 49.52 51.56 52.03 50.69 54.76 55.43 56.79 59.36 59.34 57.87 56.95 56.33 56.47 56.88 56.58 56.37
61.25 62.54 62.54 62.46 62.77 62.39 62.03 61.42 60.85 60.19 60.32 60.09 59.95 59.80 59.14 58.49 59.01 58.64 57.69 54.98 51.62 46.36 46.81 47.41 47.59 48.27 48.54 48.72 50.29 51.14 52.28 53.10 54.53 55.32 54.84 54.73 54.62 54.47 54.28 54.18 54.17 54.37 54.80
61.45 62.34 62.43 62.35 62.03 61.62 61.10 60.77 59.73 59.77 59.71 60.04 59.90 59.13 57.40 56.89 57.36 56.97 56.38 54.45 52.95 50.40 45.48 47.19 46.54 46.88 47.44 48.87 49.49 50.27 50.78 50.82 52.05 53.67 54.10 53.02 52.70 52.34 52.30 52.60 52.97 53.31 54.41
61.69 61.77 61.89 61.93 61.40 61.06 60.43 59.97 59.57 59.75 59.22 58.72 58.16 58.15 57.03 55.68 53.99 53.80 52.80 50.76 49.98 49.55 46.20 44.72 45.55 45.73 45.08 44.78 45.54 46.17 46.33 46.96 48.87 50.92 52.15 52.50 51.76 51.60 51.57 51.43 51.43 52.06 52.78
62.11 61.96 61.90 61.31 60.99 60.56 60.11 59.55 59.02 59.64 58.47 57.69 57.56 56.76 54.55 53.47 52.50 51.65 50.82 49.24 48.70 48.20 46.27 44.08 43.30 43.46 43.23 42.96 42.69 42.86 45.36 45.28 44.21 47.76 50.03 51.12 51.03 51.19 51.20 49.89 50.19 50.15 50.66
60.36 60.61 60.66 60.13 60.19 60.18 60.07 59.74 59.37 58.79 57.99 57.29 56.54 55.22 53.08 51.89 50.12 49.19 48.41 47.42 47.01 46.88 45.11 43.30 41.61 42.22 42.09 41.47 40.76 41.15 41.51 43.42 43.52 45.30 46.97 48.67 50.51 51.07 50.14 49.26 49.10 48.40 48.79
59.66 59.47 59.84 60.01 60.09 60.12 59.82 59.07 58.32 58.07 57.46 56.41 54.99 54.17 52.25 51.21 50.05 49.10 47.48 46.65 45.52 44.94 43.80 42.95 41.87 41.57 40.83 40.01 39.90 39.46 38.95 41.47 39.97 41.74 43.66 45.72 47.42 49.84 49.66 48.31 47.41 46.24 47.24
58.12 58.48 57.67 57.85 57.90 58.15 58.04 57.54 57.03 56.14 54.58 53.07 51.90 50.70 49.79 48.73 48.63 49.42 47.62 45.54 44.55 43.16 41.89 41.12 40.20 39.07 37.82 37.44 37.53 39.70 39.14 38.93 36.70 36.54 37.42 40.58 42.06 43.16 44.79 47.06 45.00 45.04 45.41
53.22 54.10 55.32 55.42 55.72 54.16 53.79 53.39 55.37 54.61 52.19 50.40 47.33 45.32 45.49 45.79 47.35 48.73 47.73 46.97 45.29 42.34 39.17 36.96 34.18 36.91 37.08 37.45 38.44 39.40 37.37 35.06 35.39 34.94 34.65 36.19 38.90 39.42 41.13 42.59 44.35 44.48 44.08
48.65 47.71 47.55 48.36 47.80 48.58 49.70 51.26 50.65 50.43 49.52 48.40 46.06 43.97 42.86 43.45 44.59 44.63 46.32 46.11 45.58 45.49 42.87 39.38 37.44 37.37 36.79 38.01 37.10 35.15 35.83 35.18 35.57 36.15 34.69 34.10 34.64 36.66 39.47 39.86 43.56 44.12 43.41
46.19 46.18 45.61 45.91 46.18 46.94 48.24 48.35 47.14 45.87 45.18 44.47 44.10 43.49 42.69 42.07 42.37 42.78 41.59 39.62 38.42 39.44 39.53 38.95 37.48 36.85 36.78 35.81 35.50 35.16 34.49 35.82 35.83 35.38 35.86 34.04 31.80 33.32 35.87 37.09 41.18 43.32 42.93
43.72 44.21 44.67 44.43 43.95 44.03 45.92 45.29 44.33 43.23 42.38 41.78 42.14 41.49 41.70 41.14 43.51 43.84 39.71 36.41 36.32 37.02 41.29 40.84 39.64 39.92 40.39 40.35 39.64 37.52 34.23 33.26 32.68 33.73 33.43 33.55 32.99 32.21 33.04 33.58 34.75 41.01 42.29
42.42 43.42 43.57 43.88 44.44 43.34 45.35 44.86 43.52 42.48 40.97 40.62 40.82 41.18 42.98 41.17 44.77 43.85 38.35 36.87 34.17 33.92 34.88 33.22 33.05 35.02 35.26 35.09 37.88 35.34 35.02 32.94 33.09 33.01 33.12 32.66 31.32 31.49 32.08 32.31 33.07 34.52 36.43

GFSMA_sfc_wetblb_129.txt.gz
Wetbulb
66.61 65.63 64.29 63.35 61.93 61.25 60.57 59.03 57.90 58.09 57.93 58.59 58.81 59.21 59.71 59.98 60.89 62.12 62.40 63.96 66.61 67.66 66.94 66.45 66.01 65.51 65.09 64.50 63.83 63.19 62.69 62.31 61.82 61.55 61.43 61.87 62.04 62.11 62.09 62.12 62.40 62.06 62.52
66.36 65.47 64.27 62.98 62.00 61.52 60.04 58.95 58.08 58.59 59.42 59.94 59.76 58.19 59.47 60.28 60.78 61.49 61.83 62.61 65.30 66.82 67.35 66.92 66.63 66.29 65.91 65.43 64.88 64.14 63.51 63.15 62.62 62.05 61.40 60.91 61.17 61.16 61.25 61.60 61.66 61.70 61.74
66.28 65.24 63.90 62.67 62.14 61.57 60.23 59.35 59.14 59.51 58.99 57.56 57.17 57.99 59.14 59.84 60.45 60.91 61.28 61.68 63.22 64.13 66.50 67.26 67.30 67.25 66.97 66.84 66.56 65.93 65.36 64.83 64.26 63.65 62.98 62.27 61.63 61.31 61.29 61.05 60.94 60.87 60.64
66.18 64.77 63.42 62.16 62.25 61.89 61.00 59.58 59.09 58.37 57.33 56.81 56.08 55.89 57.61 59.05 59.77 60.06 60.84 61.18 61.84 63.02 64.03 66.45 67.65 67.85 67.78 67.65 67.56 67.44 67.14 66.60 65.76 65.24 64.68 64.21 63.55 62.76 62.20 62.03 61.49 61.09 60.57
65.88 64.72 63.61 62.57 62.33 61.88 60.97 60.36 57.53 57.24 56.21 57.22 56.88 56.70 56.75 55.93 57.12 60.29 59.83 60.14 60.73 61.77 61.76 62.89 63.47 64.43 65.65 66.49 66.90 66.76 66.41 65.64 65.72 65.52 65.51 65.36 65.02 64.72 64.23 63.53 62.79 62.26 61.50
65.55 65.00 63.71 62.68 62.33 61.59 60.06 58.55 56.82 56.98 57.51 58.72 59.65 58.75 58.02 57.91 57.94 57.50 56.84 58.98 59.59 60.61 60.56 60.31 59.93 60.19 62.41 64.32 64.88 65.98 66.10 65.68 65.15 64.54 64.43 64.54 63.75 64.08 64.26 64.28 64.14 63.53 62.96
64.91 64.52 63.59 62.55 61.97 61.23 60.14 59.15 56.47 57.77 58.03 59.08 57.78 57.18 57.75 58.24 57.79 57.72 58.55 58.41 58.69 58.97 59.90 59.95 59.87 59.11 60.44 63.10 63.63 64.17 64.85 65.03 64.90 64.57 63.58 63.31 63.88 63.88 63.67 63.47 63.62 63.24 63.70
65.18 64.38 63.27 62.27 61.70 61.20 59.23 58.13 57.68 58.22 58.97 59.48 57.53 56.48 54.79 56.37 57.23 57.77 57.84 58.27 57.59 58.09 57.51 57.38 58.43 58.34 57.34 56.83 57.78 59.94 61.59 62.81 63.20 63.36 63.32 63.24 63.43 63.53 63.74 63.72 63.28 63.47 63.27
65.45 64.59 63.72 62.98 61.67 61.43 59.48 58.36 58.56 59.38 58.30 58.84 58.99 57.20 53.05 52.73 54.87 56.28 56.01 56.22 56.13 55.85 55.03 55.35 55.75 55.85 55.24 54.90 55.93 55.99 58.33 60.13 62.07 62.45 63.56 63.56 63.62 63.58 63.35 63.08 62.58 62.79 62.58
65.23 64.55 63.58 62.83 61.89 61.40 59.64 58.88 59.56 60.31 60.17 59.41 58.63 59.63 58.03 56.47 53.71 53.24 54.92 54.66 55.10 54.79 53.95 53.80 53.46 53.86 53.58 52.75 54.36 55.47 56.76 58.48 60.19 61.12 61.86 62.96 63.77 63.70 62.73 62.48 62.32 61.71 61.33
65.04 64.29 63.59 62.51 61.43 61.17 60.02 59.33 59.70 60.86 61.23 60.18 58.56 58.10 57.08 56.79 56.01 53.38 51.43 52.98 54.18 53.67 53.30 52.84 52.32 51.66 51.47 50.95 50.75 53.21 55.64 57.25 58.71 60.16 61.19 62.11 62.87 63.51 62.53 62.26 61.14 60.52 60.03
64.18 64.18 63.88 62.92 61.51 60.96 59.84 60.04 60.76 61.24 61.08 60.47 59.50 59.23 57.94 56.34 55.34 54.30 52.23 51.66 52.58 52.37 52.23 51.61 50.94 50.36 50.18 50.07 52.66 53.56 54.77 55.72 57.05 58.41 60.49 61.43 61.83 62.55 62.31 61.21 59.97 59.13 59.27
62.85 63.28 63.00 62.09 61.01 61.02 60.98 61.29 61.24 61.11 60.79 60.72 60.57 59.87 59.09 58.29 57.54 56.13 54.24 52.42 51.46 50.93 50.30 51.25 50.30 49.83 50.67 49.06 49.86 51.43 53.09 55.16 55.44 57.60 60.58 61.56 61.37 61.32 60.18 59.25 58.37 58.51 58.15
62.44 62.43 62.14 61.90 61.28 61.35 61.61 61.79 61.64 61.44 61.34 60.90 60.29 60.05 59.15 58.84 58.79 57.13 55.58 52.48 49.84 49.14 48.38 48.32 51.40 49.05 48.67 48.88 50.66 51.93 50.08 54.29 54.24 55.98 56.32 57.78 57.13 56.53 56.42 56.36 55.91 55.66 55.61
62.11 61.54 61.40 61.24 61.46 61.55 61.68 61.67 61.33 60.77 61.27 60.69 60.46 60.11 58.93 58.91 58.78 58.27 56.94 54.43 52.15 47.33 47.31 47.49 47.46 47.55 47.78 47.93 49.12 48.63 49.24 52.64 53.67 54.63 54.95 54.57 54.27 54.14 54.08 53.91 53.92 54.16 54.54
61.60 61.20 61.02 61.29 61.43 61.53 61.54 61.46 61.03 60.62 60.60 59.88 59.97 59.47 58.13 57.18 57.58 57.50 56.79 55.26 53.54 50.75 46.58 46.81 46.75 46.46 46.99 48.05 48.49 47.26 48.26 50.27 51.67 53.06 53.88 53.28 52.88 52.79 52.62 52.68 52.67 52.95 53.58
61.17 61.31 61.15 61.12 61.17 60.93 61.13 61.08 60.51 59.69 60.12 59.40 59.12 59.44 57.62 56.83 56.69 55.71 55.42 53.63 52.55 50.77 46.34 43.91 44.89 45.13 44.98 44.95 44.89 44.94 45.07 44.14 44.94 49.81 51.91 52.41 52.11 51.81 51.84 51.53 51.27 51.33 51.84
61.12 61.44 61.29 60.92 60.72 60.54 60.65 60.62 59.82 59.72 59.52 58.95 58.99 58.53 56.87 55.28 54.69 54.43 53.71 52.35 51.07 50.02 47.31 44.04 43.62 43.09 43.24 42.42 41.83 41.60 44.27 44.96 42.92 46.30 48.82 50.17 51.46 51.21 51.42 50.05 49.73 49.61 50.17
60.44 59.78 60.35 60.42 60.54 60.45 60.35 60.64 59.81 59.38 59.18 59.06 58.66 58.17 56.36 54.74 53.88 51.99 52.22 51.01 49.63 48.59 47.22 43.74 41.63 41.29 41.04 40.30 39.47 40.01 40.35 40.78 43.07 45.15 46.24 47.49 49.06 50.74 51.29 49.55 48.79 47.87 48.62
59.97 60.24 60.06 59.78 59.91 59.74 59.84 59.47 58.84 58.68 58.39 58.10 57.64 57.49 56.02 54.63 53.69 51.82 50.39 50.01 48.66 47.71 45.69 43.73 41.32 40.28 40.35 39.71 39.46 39.34 38.65 39.65 38.67 40.91 42.29 44.68 46.67 48.25 50.40 49.13 47.37 46.31 47.39
58.49 58.34 57.77 57.72 57.88 58.09 58.53 58.59 58.29 58.29 57.76 57.14 56.43 56.04 55.10 53.31 51.27 51.80 50.72 48.78 47.40 46.02 44.56 43.13 40.97 39.65 38.77 37.71 37.60 38.00 36.50 36.54 36.04 35.55 36.15 37.81 40.44 43.17 45.14 47.49 45.38 45.37 45.57
53.48 56.43 56.07 56.12 55.93 54.85 52.75 53.40 55.94 56.92 56.44 56.07 55.06 53.97 53.51 48.50 49.52 50.64 50.08 49.18 48.64 46.27 43.95 41.09 38.25 38.48 37.10 37.38 37.24 36.74 35.63 35.00 32.85 34.52 34.29 35.22 37.13 39.70 42.01 43.13 45.01 44.95 44.42
48.07 47.37 47.71 48.45 48.07 48.78 49.93 51.07 51.59 53.16 53.55 53.97 53.48 50.38 46.55 47.28 48.29 49.20 49.15 48.48 47.67 47.64 44.79 41.95 39.60 38.97 37.93 38.65 37.48 34.83 34.46 34.48 35.64 36.52 36.22 33.40 33.42 34.10 38.44 41.27 44.27 44.97 44.34
46.23 45.97 45.58 45.81 45.50 46.21 47.47 47.58 47.26 46.24 45.54 44.96 45.39 45.65 46.08 44.72 45.45 45.51 44.24 41.95 42.02 42.54 41.44 40.46 39.80 39.02 38.54 38.17 37.85 36.73 35.91 34.95 35.66 35.58 36.30 33.80 32.61 32.81 34.08 36.52 42.01 43.87 43.69
44.10 44.08 44.75 44.74 44.43 44.49 45.50 45.73 45.03 44.08 43.35 42.66 43.33 43.46 43.46 42.72 44.95 44.48 40.91 38.50 38.28 38.58 41.71 41.46 40.23 40.63 41.02 40.67 38.41 36.30 34.14 33.49 32.66 33.71 33.87 34.23 32.54 32.79 32.64 32.02 34.63 41.12 43.40
42.06 42.67 42.41 43.16 44.55 43.48 45.48 45.26 44.09 43.30 41.96 41.60 41.86 42.18 43.43 42.33 44.79 44.39 39.46 38.56 36.57 36.83 37.16 36.44 36.19 38.08 38.56 39.01 40.99 36.75 35.00 33.21 33.12 32.79 33.63 33.40 31.51 31.66 32.87 31.71 32.36 34.39 35.99

GFSMA_sfc_wetblb_132.txt.gz
Wetbulb
66.46 65.76 64.66 63.50 62.25 61.01 60.52 58.84 57.63 56.90 56.86 57.65 58.43 59.16 59.26 59.36 59.99 61.23 61.75 63.80 66.51 67.60 66.81 66.39 65.92 65.52 65.03 64.36 63.80 63.16 62.72 62.46 62.03 61.66 61.45 61.73 62.05 62.20 62.18 62.23 62.26 61.84 62.43
66.58 65.57 64.22 62.74 61.31 61.27 59.42 58.14 57.26 56.91 57.44 58.27 58.39 58.30 59.05 59.44 59.91 60.49 61.08 61.83 65.11 66.76 67.29 66.88 66.64 66.27 65.88 65.57 65.03 64.36 63.77 63.41 63.12 62.64 61.93 61.32 61.16 61.25 61.42 61.41 61.65 61.72 61.47
66.33 65.48 63.71 62.57 61.59 60.45 58.84 57.49 57.14 57.87 58.42 58.50 58.30 57.26 58.74 59.12 59.77 60.17 60.45 60.74 62.30 63.96 66.24 67.18 67.25 67.24 67.19 67.12 66.88 66.35 65.93 65.33 64.89 64.27 63.74 63.06 62.39 61.87 61.72 61.78 61.28 61.14 61.11
66.65 65.50 64.04 62.38 61.24 60.17 59.10 57.76 57.46 57.44 57.86 56.28 55.85 56.40 57.90 59.04 59.20 59.23 60.04 60.55 61.13 62.32 63.53 65.87 66.95 67.65 67.32 67.07 67.24 67.35 66.78 66.76 66.34 65.80 65.36 64.75 64.39 63.76 63.43 62.96 62.58 61.74 61.42
66.34 65.37 64.20 62.40 61.38 60.41 59.19 58.53 56.79 57.27 55.96 55.53 55.50 55.08 56.08 57.68 58.72 60.10 59.21 59.72 60.21 61.10 61.17 62.37 62.88 63.30 64.51 65.83 66.06 66.42 65.84 65.67 65.45 65.32 65.26 65.11 64.55 64.40 64.56 64.64 64.17 63.38 62.76
66.30 65.22 63.87 62.05 61.53 60.17 58.78 58.24 56.91 56.35 56.39 56.63 57.16 56.65 56.47 55.82 56.25 56.70 57.82 59.65 59.76 60.10 60.33 59.90 59.22 59.51 62.03 64.04 64.79 65.68 65.81 65.76 65.18 64.90 64.76 63.51 63.53 63.81 63.77 63.94 63.87 64.04 63.96
66.11 65.18 64.27 62.69 61.35 59.95 59.16 58.90 56.53 56.61 56.59 57.92 56.71 56.17 56.80 57.32 57.01 57.03 57.36 56.92 57.62 58.46 58.98 59.21 58.87 58.55 60.28 63.06 63.82 64.40 64.82 65.53 65.17 63.89 63.27 63.34 63.71 63.60 63.75 63.42 63.10 62.90 63.20
65.61 65.32 64.32 62.91 61.55 60.02 58.82 58.34 56.80 56.44 56.99 58.60 56.45 55.49 54.13 56.00 56.34 57.02 57.23 57.96 57.60 57.61 57.15 57.30 57.86 57.50 56.69 56.56 57.79 60.40 62.05 63.06 63.29 62.89 63.00 62.92 63.10 63.45 63.44 63.37 63.39 62.93 62.88
65.51 65.24 64.36 63.52 62.41 60.85 59.06 58.34 57.67 58.07 56.75 57.90 57.61 56.39 52.11 52.33 53.91 55.44 55.43 56.10 56.04 55.52 54.92 55.07 55.56 55.53 54.91 54.67 55.37 55.99 58.77 60.67 61.84 62.00 63.10 63.39 63.83 63.85 63.18 62.81 62.51 62.48 61.72
65.56 64.91 64.33 63.60 62.72 61.79 60.33 58.66 58.61 58.68 57.99 57.68 57.15 58.24 56.83 55.72 53.24 52.63 54.45 54.28 54.59 54.33 53.97 53.70 53.64 53.57 52.98 52.50 54.33 55.62 57.15 58.54 60.09 60.54 61.38 62.31 63.42 63.69 63.03 62.87 62.36 61.30 60.58
65.58 65.04 64.60 63.72 62.77 62.22 61.16 60.00 58.40 58.36 59.72 59.23 58.43 57.16 55.94 55.73 54.89 53.67 51.63 52.50 53.25 53.69 53.51 53.45 52.43 51.59 51.14 50.87 50.64 53.40 55.73 57.13 58.65 59.65 60.92 61.86 62.67 63.17 63.36 63.10 61.96 60.80 59.64
63.87 64.83 64.28 63.46 62.92 62.24 61.02 60.11 59.59 59.62 60.02 60.16 60.34 58.34 57.34 56.07 54.85 52.97 50.77 51.01 52.06 52.56 52.68 51.97 51.03 50.51 50.14 49.99 52.45 53.80 55.19 56.19 56.53 58.02 60.12 61.42 61.62 62.22 62.51 62.28 60.57 59.63 59.06
62.29 63.53 63.52 62.62 62.06 61.92 61.37 60.51 59.84 60.00 60.30 60.17 60.19 60.10 58.75 57.90 57.27 55.42 53.23 51.58 51.04 51.29 51.85 52.26 50.91 50.08 50.35 49.17 49.81 51.29 53.54 54.63 54.81 57.05 59.87 60.87 60.88 61.00 60.92 59.94 59.24 58.10 57.40
62.00 62.78 63.69 63.05 62.51 62.11 61.55 60.61 60.25 60.35 60.89 60.80 60.32 60.10 59.88 58.87 57.79 56.36 54.81 52.21 48.91 49.35 50.20 49.68 52.34 51.19 48.37 48.37 49.95 51.92 49.89 54.03 54.11 55.04 55.87 56.10 56.06 56.52 56.48 56.21 55.78 55.35 55.17
61.66 62.95 63.54 63.23 62.78 61.76 61.35 60.67 60.53 60.12 60.43 60.90 60.64 60.22 60.04 58.96 58.64 57.78 56.33 54.14 52.25 48.34 49.91 48.19 49.82 50.22 47.92 47.87 48.83 47.99 48.44 52.18 53.45 53.60 54.56 54.43 53.98 53.89 53.68 53.58 53.69 53.80 54.29
61.70 62.46 63.10 63.01 62.36 61.39 61.01 60.79 60.51 60.71 60.29 60.35 60.30 59.55 59.05 58.38 58.87 58.19 57.35 55.23 53.23 51.16 49.35 47.99 47.92 48.12 47.58 47.80 48.26 46.59 47.15 49.45 50.66 52.05 53.45 53.26 52.91 52.60 52.38 52.30 52.09 52.32 52.75
61.92 62.24 62.16 62.04 61.31 60.90 61.06 60.74 60.59 60.35 59.75 59.62 59.55 59.64 59.08 58.14 58.18 57.65 56.86 54.74 53.74 51.13 49.85 45.96 46.39 45.83 46.49 45.93 45.63 44.43 44.81 43.59 44.04 48.37 50.57 51.97 52.25 51.96 51.87 51.41 50.86 50.70 51.09
61.89 61.75 61.60 61.61 61.27 61.21 61.18 60.66 60.19 59.77 59.62 58.89 58.94 59.54 59.12 57.55 57.05 57.47 56.38 55.29 54.43 52.16 49.73 47.07 46.95 46.00 46.33 44.76 43.14 42.01 43.60 44.86 42.53 46.20 48.51 49.35 50.76 51.62 51.61 51.20 49.96 49.29 49.48
61.09 60.92 60.81 60.47 60.70 60.76 60.56 60.61 60.14 59.24 59.50 59.51 59.50 59.15 58.61 57.08 56.77 55.01 53.62 52.67 52.74 49.98 48.55 46.47 43.94 43.97 43.41 42.29 40.08 40.51 40.00 39.53 42.02 45.01 47.03 47.89 49.12 50.16 51.10 51.12 49.68 48.12 48.12
60.31 60.59 60.55 60.21 60.24 60.33 60.22 60.00 59.35 58.93 59.15 58.91 58.75 59.08 58.13 56.70 56.97 55.45 54.59 53.99 51.42 50.00 47.16 45.10 43.65 42.02 42.50 40.84 40.35 39.20 38.11 38.20 38.56 40.72 42.23 44.15 46.22 47.77 49.42 51.22 49.13 47.16 47.66
58.79 58.77 58.38 58.54 58.56 58.68 58.85 58.51 57.88 57.89 58.26 57.98 57.78 57.54 57.40 55.65 53.78 55.53 55.22 54.30 50.46 49.84 46.68 44.68 42.62 41.58 40.66 39.25 39.27 39.18 37.96 36.93 36.42 36.50 36.87 37.74 39.67 42.73 45.56 49.54 46.31 45.99 46.41
51.39 52.55 56.12 56.51 54.81 51.80 52.65 53.94 55.70 56.61 56.10 55.89 55.51 55.64 55.48 51.27 52.42 52.38 52.70 52.53 51.73 49.85 47.24 45.93 41.39 41.07 40.73 39.82 39.00 38.60 37.22 34.91 34.45 34.98 34.65 35.49 37.25 37.48 42.11 44.01 45.95 45.68 45.28
48.88 48.77 48.75 49.04 48.21 48.75 49.94 50.87 50.84 52.41 53.08 54.47 54.70 54.24 53.02 51.41 51.05 52.55 51.89 51.11 50.38 50.45 49.46 46.95 43.72 41.99 40.42 39.71 38.18 35.39 35.51 34.88 35.15 36.13 35.90 34.45 34.45 34.53 37.52 41.76 45.28 45.95 45.45
46.66 46.22 45.95 45.97 45.99 46.42 47.92 47.96 47.45 46.98 46.31 45.44 45.43 45.39 46.29 45.62 46.71 48.12 48.18 44.96 44.09 43.51 43.42 43.04 42.87 41.39 40.86 40.12 38.84 37.28 36.71 35.43 34.78 35.04 35.24 33.76 32.60 33.49 34.19 35.98 42.39 44.64 45.08
43.55 43.57 44.30 44.40 44.18 44.40 45.86 46.10 45.70 44.63 43.64 42.93 43.45 43.83 44.23 43.98 46.15 46.37 43.55 41.37 40.83 40.03 42.96 42.86 42.13 42.16 42.24 41.95 39.64 36.70 33.83 33.54 32.71 33.77 33.02 34.58 32.49 32.08 32.84 33.11 34.24 41.32 44.07
41.40 42.38 42.06 42.66 44.28 43.62 45.65 45.73 44.49 43.74 42.57 42.06 42.31 42.80 44.52 43.91 45.54 44.70 41.61 40.35 38.15 37.28 37.65 37.05 37.84 39.65 40.64 40.74 41.53 36.78 35.16 33.58 33.17 32.65 33.41 33.55 31.48 31.41 31.66 31.76 32.64 34.36 35.96

GFSMA_sfc_wetblb_135.txt.gz
Wetbulb
67.89 67.89 67.23 67.88 67.60 66.69 66.01 65.70 64.10 63.80 63.81 64.01 64.34 64.17 63.75 64.40 65.13 65.95 67.00 64.11 66.66 67.77 67.14 66.73 66.25 65.77 65.23 64.73 64.22 63.56 63.23 63.00 62.42 61.96 61.67 61.69 61.66 61.79 61.92 62.20 62.31 62.05 62.31
67.74 67.46 66.42 66.73 66.74 65.89 65.03 64.54 63.20 62.88 62.69 62.96 63.10 63.86 63.93 64.08 64.32 64.98 65.97 66.41 65.24 66.96 67.40 67.21 66.85 66.54 66.28 65.96 65.58 64.96 64.53 64.22 63.88 63.59 62.91 62.22 61.59 61.41 61.51 61.69 61.79 61.67 61.51
67.85 67.19 65.97 66.04 65.97 65.31 63.94 62.83 61.97 62.00 62.11 62.44 63.09 63.24 63.72 64.19 63.88 64.16 64.97 65.53 65.92 64.06 66.26 67.30 67.40 67.56 67.49 67.43 67.35 67.16 66.49 65.86 65.44 65.14 64.57 64.01 63.32 62.56 62.36 62.41 62.44 62.06 61.99
67.97 67.23 65.50 65.67 65.21 64.22 63.22 61.78 61.45 61.00 61.56 62.05 62.42 62.89 62.58 63.72 63.93 63.87 64.04 64.59 65.28 65.54 64.84 65.84 66.57 66.98 67.24 66.83 66.78 66.43 65.99 66.83 66.91 66.32 65.88 65.40 64.96 64.61 64.29 64.19 63.83 63.47 62.91
67.30 66.82 66.04 65.87 64.73 63.59 62.39 61.23 60.40 61.31 60.93 61.22 61.33 61.67 62.09 63.15 63.69 63.27 63.65 63.95 64.46 64.54 65.15 63.60 63.21 63.17 63.99 65.51 66.02 65.88 65.65 65.40 65.46 65.44 65.39 65.29 64.42 63.82 63.76 64.07 64.45 64.64 64.26
66.99 66.51 66.15 65.68 64.52 63.17 61.80 61.08 60.13 61.09 61.65 61.74 59.46 59.53 60.46 61.59 62.57 63.09 63.60 63.45 63.64 63.82 64.36 64.20 64.38 63.67 61.99 64.18 65.28 65.56 65.96 65.84 65.16 65.04 64.68 63.33 63.46 63.51 63.31 63.24 63.34 63.54 63.64
67.06 66.24 65.87 64.98 64.40 62.85 61.44 60.87 59.98 59.95 60.50 61.31 59.64 59.97 60.72 61.33 60.69 61.26 61.83 61.68 61.74 62.34 62.87 62.88 63.73 63.94 64.77 64.19 64.50 64.86 65.29 65.79 65.48 64.22 63.42 63.46 63.28 63.22 63.42 63.57 63.54 63.26 63.27
67.11 66.12 65.33 63.70 62.99 61.55 61.06 60.41 59.80 59.27 61.06 61.34 59.70 59.60 57.77 59.63 60.68 60.88 61.23 61.06 61.14 61.69 61.72 61.67 62.53 63.13 63.34 63.28 62.48 61.40 62.83 63.66 63.86 63.38 63.12 63.12 63.36 63.44 63.61 63.69 63.14 62.62 62.38
66.71 66.05 65.63 64.19 63.04 61.55 60.25 59.85 60.52 60.39 59.87 60.80 61.83 60.57 56.97 56.61 58.91 59.99 60.05 60.65 60.74 60.46 60.19 60.27 61.19 61.85 61.85 61.82 59.88 59.31 59.66 61.17 62.47 62.41 62.83 62.85 63.40 63.70 63.56 63.29 62.84 62.41 61.43
66.49 66.14 65.56 64.76 62.73 62.62 60.21 60.16 59.80 61.25 62.31 60.40 61.04 60.80 60.98 60.38 58.22 56.47 58.63 58.95 59.38 59.48 59.60 59.60 59.88 59.90 59.99 59.91 57.62 56.72 57.58 59.01 60.50 60.90 61.48 62.12 63.21 63.75 63.82 63.47 63.39 61.89 60.57
66.30 65.85 65.38 64.33 62.97 62.15 61.85 59.87 60.49 60.65 61.66 61.64 60.91 60.90 60.13 60.01 59.33 57.98 55.04 57.15 57.35 57.99 58.39 58.55 59.26 59.15 58.32 58.41 58.18 57.09 56.76 58.16 59.53 59.65 60.88 61.77 62.78 63.63 63.83 63.69 63.01 61.32 60.16
63.80 65.20 65.33 64.62 63.97 62.75 61.65 61.31 59.79 59.63 60.07 60.99 60.95 60.91 60.38 58.71 58.00 56.98 56.10 56.29 56.98 57.22 57.64 58.19 57.76 57.33 57.58 57.17 55.36 54.37 55.82 57.14 57.60 58.70 59.65 61.60 62.01 62.22 62.23 62.96 62.26 60.19 59.09
62.19 63.50 64.60 64.06 63.54 63.04 62.41 62.12 60.50 59.49 59.62 59.88 61.34 60.69 61.85 61.24 60.22 59.12 56.99 55.66 56.94 55.82 55.60 55.96 56.19 56.13 55.49 56.03 55.82 53.08 54.39 55.73 55.73 57.21 58.41 59.09 58.51 59.57 61.05 61.36 60.15 58.43 57.46
62.38 62.90 64.54 64.23 63.61 63.12 62.61 62.05 60.82 60.26 60.03 59.94 60.38 61.71 61.23 61.68 60.44 59.42 57.34 56.06 53.53 53.91 54.47 56.05 54.96 55.06 55.18 55.48 54.75 51.92 54.96 54.24 54.64 55.54 56.26 56.01 55.29 55.10 56.06 56.46 56.24 55.63 55.40
62.30 62.56 63.97 64.04 63.28 62.90 62.73 62.63 61.64 60.56 59.90 59.97 60.88 61.96 61.54 61.52 61.28 61.03 59.75 58.59 58.08 54.21 53.40 55.20 53.70 54.43 54.18 54.24 53.98 54.26 54.39 53.03 54.26 54.32 54.36 54.95 54.29 53.97 53.63 54.00 54.17 54.04 54.12
62.15 62.85 62.66 63.49 62.93 62.56 62.35 62.56 61.42 60.86 59.75 60.34 60.71 60.59 61.38 61.86 61.19 60.80 59.61 58.34 58.16 58.34 55.59 56.78 53.89 52.89 52.53 52.06 52.80 53.54 52.90 50.87 52.82 53.46 53.78 54.11 53.51 53.32 53.08 52.97 52.99 52.59 52.51
61.69 61.60 62.24 62.45 62.40 62.35 61.87 61.49 60.99 61.34 60.13 60.25 60.27 61.32 60.99 61.52 60.04 60.41 59.94 58.74 57.74 56.01 55.97 54.28 52.75 52.19 50.76 51.15 51.35 51.54 51.11 51.40 51.12 50.69 51.71 52.49 53.04 52.94 52.59 52.51 51.98 51.55 51.22
60.54 61.11 61.58 61.78 62.46 62.20 61.75 60.90 60.53 60.65 59.66 59.10 59.49 60.55 60.20 60.06 59.96 60.44 59.44 58.47 57.39 56.57 55.27 55.03 49.59 48.23 49.98 49.75 50.66 50.20 48.48 48.29 49.08 48.15 49.76 50.31 50.91 51.83 52.23 52.23 51.55 50.64 49.62
59.83 60.85 61.38 61.36 61.56 62.02 61.04 60.70 61.06 60.75 59.50 59.58 59.80 59.69 59.82 59.53 58.94 59.51 58.99 58.23 57.92 55.45 54.80 51.76 48.90 46.88 47.24 46.11 44.88 45.38 46.36 46.95 45.14 45.93 47.83 48.81 49.63 50.22 51.25 51.66 51.26 49.92 48.72
59.60 60.33 61.23 61.50 61.42 61.47 60.93 60.65 60.46 60.28 59.64 60.01 60.39 59.99 59.77 59.51 58.92 58.96 57.98 57.86 56.59 55.13 53.20 51.69 46.56 45.02 45.37 44.26 44.90 44.82 43.97 42.01 42.63 43.19 44.34 45.08 46.24 47.84 49.11 50.56 51.34 48.89 47.82
58.86 60.38 60.16 59.09 58.64 58.78 58.78 59.67 59.16 58.99 59.03 58.61 57.50 57.83 58.25 56.81 53.81 57.48 57.94 57.22 56.13 54.72 53.06 51.83 46.09 43.90 42.59 41.24 42.41 42.88 42.95 41.28 41.37 42.67 42.57 43.04 44.49 46.05 47.22 48.80 49.22 47.16 47.28
53.70 54.70 56.53 55.46 53.58 53.27 52.79 54.33 56.23 56.84 56.35 56.28 55.67 55.58 56.15 52.62 52.95 52.28 52.71 52.72 55.44 54.95 53.03 52.08 50.25 47.17 45.85 44.65 41.75 40.95 40.23 38.57 40.23 39.62 40.31 40.88 42.63 43.54 45.77 46.88 47.22 46.88 46.93
49.42 48.22 47.86 49.07 48.42 49.41 50.32 51.19 52.23 54.07 54.00 53.71 53.20 52.65 52.71 52.07 51.37 54.40 53.10 52.46 52.08 51.55 53.02 52.86 51.19 48.46 46.97 42.54 40.94 38.05 38.12 39.72 39.97 39.36 40.49 40.24 40.29 41.29 43.45 44.58 46.23 46.95 46.52
45.21 45.28 45.15 45.33 45.67 46.14 47.44 47.95 48.06 47.98 46.88 46.08 46.19 46.39 46.70 46.05 46.72 47.62 47.78 47.59 46.10 45.42 45.89 47.10 49.99 45.98 43.84 42.82 42.67 40.51 39.47 38.88 39.30 39.23 40.41 38.88 39.40 39.54 41.18 42.22 43.31 46.19 46.85
43.59 43.66 44.37 44.50 44.47 44.84 45.80 45.98 45.86 45.00 44.11 43.21 43.74 44.48 44.98 44.73 46.40 46.79 43.81 41.25 40.01 39.51 43.19 44.18 44.11 44.09 43.92 43.27 41.27 38.93 36.23 36.38 36.24 37.38 38.09 38.28 38.29 38.76 38.61 39.25 39.71 41.71 45.08
41.55 42.25 42.20 42.92 43.57 44.04 45.03 45.11 44.86 44.36 43.23 43.00 43.23 43.08 44.41 45.10 46.02 45.81 43.35 42.29 39.66 38.29 38.30 38.09 38.66 41.21 41.86 42.46 42.78 39.73 37.46 35.11 35.64 36.09 38.35 37.82 35.92 36.92 37.34 36.83 36.62 37.70 40.31